Weather History for Ocala, FL

Change the Weather History Date:

Saturday, June 15, 2013

  Actual Average Record
Temperature  
Mean Temperature 78 °F -  
Max Temperature 84 °F 88 °F 98 °F (2011)
Min Temperature 73 °F 68 °F 64 °F (2007)
Cooling Degree Days 14    
Growing Degree Days 28 (Base 50)    
Moisture  
Dew Point 71 °F    
Average Humidity 79    
Maximum Humidity 94    
Minimum Humidity 62    
Precipitation  
Precipitation 0.26 in - - ()
Sea Level Pressure  
Sea Level Pressure 30.00 in    
Wind  
Wind Speed 4 mph (ENE)    
Max Wind Speed 10 mph    
Max Gust Speed 16 mph    
Visibility 9 miles    
Events Thunderstorm    
Averages and records for this station are not official NWS values.
T = Trace of Precipitation, MM = Missing Value Source: NWS Daily Summary

Daily Weather History Graph

Daily Weather History Graph

Search for Another Location

Airport:

Trip Planner

Search our weather history database for the weather conditions in past years. The results will help you decide how hot, cold, wet, or windy it might be!

Date:

Astronomy

Jun. 15, 2013 Rise Set
Actual Time 6:29 AM EDT 8:29 PM EDT
Civil Twilight 6:02 AM EDT 8:56 PM EDT
Nautical Twilight 5:29 AM EDT 9:29 PM EDT
Astronomical Twilight 4:54 AM EDT 10:04 PM EDT
Moon 12:35 PM EDT (6/15) 12:29 AM EDT (6/15)
Length of Visible Light 14h 54m
Length of Day
14h 00m
Waxing Crescent, 39% of the Moon is Illuminated
Jun 15
Waxing Crescent
Jun 16
First Quarter
Jun 23
Full
Jun 30
Last Quarter
Jul 8
New

Hourly Weather History & Observations

Time (EDT) Temp. Heat Index Dew Point Humidity Pressure Visibility Wind Dir Wind Speed Gust Speed Precip Events Conditions
12:15 AM 78.8 °F - 73.4 °F 83% 29.93 in 10.0 mi SSW 5.8 mph - N/A   Clear
12:35 AM 78.8 °F - 73.4 °F 83% 29.94 in 10.0 mi SW 4.6 mph - N/A   Clear
12:55 AM 78.8 °F - 73.4 °F 83% 29.94 in 10.0 mi Calm Calm - N/A   Scattered Clouds
1:15 AM 77.0 °F - 73.4 °F 89% 29.94 in 8.0 mi Calm Calm - N/A   Scattered Clouds
1:35 AM 78.8 °F - 73.4 °F 83% 29.94 in 9.0 mi Calm Calm - N/A   Mostly Cloudy
1:55 AM 78.8 °F - 73.4 °F 83% 29.93 in 9.0 mi South 4.6 mph - N/A   Mostly Cloudy
2:15 AM 78.8 °F - 73.4 °F 83% 29.93 in 8.0 mi SSW 3.5 mph - N/A   Scattered Clouds
2:35 AM 78.8 °F - 73.4 °F 83% 29.94 in 7.0 mi NW 3.5 mph - N/A Thunderstorm Thunderstorm
2:55 AM 77.0 °F - 71.6 °F 83% 29.94 in 7.0 mi NNE 5.8 mph - 0.17 in Thunderstorm Thunderstorm
3:15 AM 75.2 °F - 71.6 °F 89% 29.93 in 10.0 mi NNE 4.6 mph - 0.06 in Thunderstorm Thunderstorm
3:35 AM 75.2 °F - 71.6 °F 89% 29.92 in 9.0 mi NE 4.6 mph - 0.06 in Thunderstorm Mostly Cloudy
3:55 AM 75.2 °F - 71.6 °F 89% 29.93 in 10.0 mi NE 5.8 mph - 0.06 in Thunderstorm Mostly Cloudy
4:15 AM 75.2 °F - 71.6 °F 89% 29.94 in 10.0 mi Calm Calm - N/A Thunderstorm Overcast
4:35 AM 75.2 °F - 71.6 °F 89% 29.95 in 10.0 mi Calm Calm - N/A   Overcast
4:55 AM 75.2 °F - 71.6 °F 89% 29.95 in 10.0 mi NNE 3.5 mph - N/A Thunderstorm Mostly Cloudy
5:15 AM 75.2 °F - 71.6 °F 89% 29.96 in 9.0 mi North 4.6 mph - N/A   Overcast
5:35 AM 75.2 °F - 71.6 °F 89% 29.97 in 7.0 mi NNE 4.6 mph - N/A   Mostly Cloudy
5:55 AM 75.2 °F - 71.6 °F 89% 29.98 in 7.0 mi East 4.6 mph - 0.01 in   Overcast
6:15 AM 73.4 °F - 71.6 °F 94% 29.98 in 5.0 mi NE 4.6 mph - 0.02 in   Overcast
6:35 AM 73.4 °F - 71.6 °F 94% 29.98 in 7.0 mi ENE 3.5 mph - 0.02 in   Mostly Cloudy
6:50 AM 73.4 °F - 71.6 °F 94% 29.98 in 6.0 mi NE 4.6 mph - N/A   Mostly Cloudy
7:50 AM 73.4 °F - 69.8 °F 88% 30.00 in 10.0 mi ENE 5.8 mph - N/A   Mostly Cloudy
8:50 AM 75.2 °F - 71.6 °F 89% 30.02 in 10.0 mi East 4.6 mph - N/A   Partly Cloudy
9:50 AM 78.8 °F - 69.8 °F 74% 30.04 in 10.0 mi East 8.1 mph - N/A   Mostly Cloudy
10:50 AM 80.6 °F 84.6 °F 71.6 °F 74% 30.05 in 10.0 mi East 8.1 mph - N/A   Mostly Cloudy
11:50 AM 82.4 °F 87.2 °F 71.6 °F 70% 30.05 in 10.0 mi ENE 8.1 mph - N/A   Mostly Cloudy
12:50 PM 82.4 °F 87.2 °F 71.6 °F 70% 30.05 in 10.0 mi ENE 10.4 mph - N/A   Overcast
1:50 PM 84.2 °F 89.6 °F 71.6 °F 66% 30.04 in 10.0 mi NNE 8.1 mph - N/A   Mostly Cloudy
2:50 PM 84.2 °F 89.6 °F 71.6 °F 66% 30.03 in 10.0 mi ENE 8.1 mph - N/A   Mostly Cloudy
3:50 PM 84.2 °F 89.6 °F 71.6 °F 66% 30.02 in 10.0 mi ENE 8.1 mph - N/A   Mostly Cloudy
4:50 PM 84.2 °F 88.4 °F 69.8 °F 62% 30.02 in 10.0 mi ENE 8.1 mph - N/A   Overcast
5:50 PM 82.4 °F 87.2 °F 71.6 °F 70% 30.03 in 10.0 mi East 4.6 mph - N/A   Overcast
6:50 PM 78.8 °F - 69.8 °F 74% 30.04 in 10.0 mi ENE 10.4 mph 16.1 mph N/A   Overcast
7:55 PM 77.0 °F - 69.8 °F 78% 30.06 in 10.0 mi ENE 5.8 mph - N/A   Overcast
8:15 PM 77.0 °F - 69.8 °F 78% 30.06 in 10.0 mi ENE 4.6 mph - N/A   Overcast
8:35 PM 77.0 °F - 69.8 °F 78% 30.06 in 10.0 mi East 3.5 mph - N/A   Overcast
8:55 PM 77.0 °F - 68.0 °F 74% 30.06 in 10.0 mi East 3.5 mph - N/A   Overcast
9:15 PM 77.0 °F - 68.0 °F 74% 30.06 in 10.0 mi East 3.5 mph - N/A   Mostly Cloudy
9:35 PM 77.0 °F - 66.2 °F 69% 30.06 in 10.0 mi East 4.6 mph - N/A   Overcast
9:55 PM 77.0 °F - 66.2 °F 69% 30.07 in 10.0 mi East 4.6 mph - N/A   Overcast
10:15 PM 77.0 °F - 66.2 °F 69% 30.07 in 10.0 mi ENE 4.6 mph - N/A   Overcast
10:35 PM 77.0 °F - 66.2 °F 69% 30.08 in 10.0 mi ENE 4.6 mph - N/A   Overcast
10:55 PM 75.2 °F - 66.2 °F 73% 30.08 in 10.0 mi East 5.8 mph - N/A   Overcast
11:15 PM 75.2 °F - 66.2 °F 73% 30.09 in 10.0 mi ENE 5.8 mph - N/A   Scattered Clouds
11:35 PM 75.2 °F - 66.2 °F 73% 30.09 in 10.0 mi ENE 4.6 mph - N/A   Mostly Cloudy
11:55 PM 75.2 °F - 66.2 °F 73% 30.09 in 10.0 mi East 3.5 mph - N/A   Overcast